ICE631 BIKF-KBOS

Flight info

Callsign ICE631
Flight time N/A
Altitude 34000
Route DELES2A DELES DCT DOPOD DCT 61N030W 56N040W 52N050W DCT UMESI/N0473F340 DCT ALLEX DCT AJJAY OOSHN5
Aircraft B763/H-SDE3FGHIM3RWXY/LB1

Departure

Time 2026-05-07 01:14
Airport Keflavik International Airport (BIKF)

Arrival

Time N/A
Airport Boston Logan International Airport (KBOS)
Time Latitude Longitude Altitude Speed Heading
2026-05-07 00:59 63.99279 -22.62449 166 ft 0 kts
2026-05-07 01:01 63.99269 -22.62450 166 ft 3 kts
2026-05-07 01:02 63.99250 -22.62452 166 ft 3 kts
2026-05-07 01:02 63.99231 -22.62454 165 ft 3 kts
2026-05-07 01:02 63.99212 -22.62458 165 ft 3 kts
2026-05-07 01:02 63.99192 -22.62465 165 ft 3 kts 17°
2026-05-07 01:03 63.99173 -22.62493 164 ft 3 kts 49°
2026-05-07 01:03 63.99173 -22.62521 164 ft 0 kts 91°
2026-05-07 01:06 63.99173 -22.62517 164 ft 1 kts 91°
2026-05-07 01:06 63.99173 -22.62462 164 ft 6 kts 91°
2026-05-07 01:06 63.99172 -22.62341 166 ft 9 kts 90°
2026-05-07 01:06 63.99172 -22.62188 167 ft 11 kts 90°
2026-05-07 01:07 63.99173 -22.62004 169 ft 13 kts 89°
2026-05-07 01:07 63.99172 -22.61795 171 ft 14 kts 91°
2026-05-07 01:07 63.99172 -22.61568 174 ft 14 kts 90°
2026-05-07 01:07 63.99172 -22.61329 175 ft 16 kts 89°
2026-05-07 01:08 63.99172 -22.61080 177 ft 15 kts 91°
2026-05-07 01:08 63.99127 -22.60944 177 ft 11 kts 176°
2026-05-07 01:08 63.99034 -22.60945 176 ft 16 kts 180°
2026-05-07 01:08 63.98909 -22.60945 175 ft 20 kts 179°
2026-05-07 01:09 63.98750 -22.60945 173 ft 25 kts 179°
2026-05-07 01:09 63.98563 -22.60941 170 ft 28 kts 180°
2026-05-07 01:09 63.98377 -22.60936 169 ft 25 kts 179°
2026-05-07 01:09 63.98203 -22.60946 169 ft 26 kts 182°
2026-05-07 01:10 63.98023 -22.60947 168 ft 26 kts 179°
2026-05-07 01:10 63.97846 -22.60950 166 ft 25 kts 180°
2026-05-07 01:10 63.97675 -22.60946 164 ft 24 kts 180°
2026-05-07 01:10 63.97508 -22.60931 163 ft 24 kts 175°
2026-05-07 01:11 63.97356 -22.60935 161 ft 21 kts 186°
2026-05-07 01:11 63.97213 -22.60950 160 ft 20 kts 179°
2026-05-07 01:11 63.97073 -22.60948 158 ft 20 kts 179°
2026-05-07 01:11 63.96939 -22.60948 157 ft 19 kts 180°
2026-05-07 01:12 63.96803 -22.60945 156 ft 19 kts 180°
2026-05-07 01:12 63.96662 -22.60946 154 ft 20 kts 179°
2026-05-07 01:12 63.96524 -22.60943 153 ft 19 kts 178°
2026-05-07 01:12 63.96462 -22.60782 152 ft 13 kts 93°
2026-05-07 01:13 63.96463 -22.60623 152 ft 3 kts 77°
2026-05-07 01:13 63.96477 -22.60569 152 ft 5 kts 42°
2026-05-07 01:13 63.96498 -22.60549 152 ft 7 kts 10°
2026-05-07 01:13 63.96590 -22.60544 153 ft 37 kts
2026-05-07 01:14 63.97088 -22.60547 158 ft 105 kts
2026-05-07 01:14 63.98030 -22.60517 181 ft 164 kts
2026-05-07 01:14 63.99301 -22.60510 544 ft 198 kts 360°
2026-05-07 01:14 64.00730 -22.60712 1054 ft 216 kts 358°
2026-05-07 01:15 64.02303 -22.61093 1374 ft 233 kts 347°
2026-05-07 01:15 64.03675 -22.63018 2108 ft 236 kts 314°
2026-05-07 01:15 64.04527 -22.66205 2376 ft 247 kts 297°
2026-05-07 01:15 64.05120 -22.69953 2798 ft 253 kts 290°
2026-05-07 01:16 64.05534 -22.73851 3434 ft 252 kts 284°
2026-05-07 01:16 64.05829 -22.77817 3985 ft 254 kts 281°
2026-05-07 01:16 64.06060 -22.81819 4520 ft 255 kts 280°